Temp
60 60 60 60 60 60 60 61 61 61 60 61 61 60 60 60 60 69 66 78 79 74 72 83 87 86 87 83 87 87 71 67 70 73 78 89 86 90 92 87 90 94 92 96 98
60 60 60 60 60 60 60 60 60 60 60 60 60 60 60 60 63 69 78 73 73 74 80 80 80 84 79 80 82 79 70 70 79 82 81 86 88 90 85 84 85 88 95 97 98
60 60 60 59 59 59 59 60 60 60 60 60 60 60 59 61 67 76 72 72 73 75 82 85 86 83 77 81 80 79 72 79 81 84 86 85 86 91 84 80 85 84 89 93 93
59 59 60 59 59 59 59 59 59 60 60 60 60 59 60 65 62 80 73 73 72 80 82 83 82 76 74 73 81 74 80 81 83 86 85 83 88 86 86 81 90 91 91 91 89
59 59 59 59 58 58 59 59 59 59 59 59 59 59 64 68 73 81 73 75 81 82 81 82 78 78 72 77 79 76 79 83 84 85 85 86 83 83 85 90 91 90 90 88 87
58 58 58 58 58 58 58 58 58 58 59 59 59 59 63 62 89 86 86 84 84 85 84 84 80 83 76 76 76 80 81 81 83 83 83 80 80 83 84 89 88 89 87 87 87
57 58 58 57 58 58 58 57 57 58 58 59 59 66 66 70 90 90 88 86 88 87 81 86 86 79 79 74 81 78 72 77 78 79 78 82 73 75 84 87 84 86 87 88 88
57 57 57 57 57 58 58 58 57 57 58 59 60 67 65 89 92 88 89 86 89 89 86 87 86 79 76 80 76 70 71 62 74 77 79 77 65 78 84 83 82 84 86 87 88
57 56 57 57 57 58 57 57 57 59 60 60 61 66 68 80 81 88 89 82 86 86 86 87 82 74 75 68 64 68 59 64 68 79 78 75 67 77 84 82 81 83 84 85 86
57 56 56 56 57 57 56 56 60 59 62 69 74 67 75 75 83 86 89 86 80 80 78 76 73 67 69 65 54 60 62 66 65 75 75 72 70 77 80 81 79 80 81 82 83
56 56 55 56 57 56 58 69 64 63 70 69 73 71 78 84 87 81 86 81 79 75 65 73 64 59 66 69 69 68 66 63 69 77 71 69 69 73 78 79 78 78 78 80 81
56 55 56 56 56 56 59 68 75 77 65 78 79 78 82 84 73 78 86 73 71 64 70 66 61 69 72 72 69 66 62 61 68 73 71 68 66 71 74 75 78 78 78 79 81
55 55 55 56 55 59 71 77 86 84 66 73 79 77 77 80 72 75 80 75 69 66 66 62 67 74 69 67 64 63 60 61 62 69 71 66 61 65 72 75 78 80 80 81 80
55 55 55 54 58 80 78 84 87 83 58 66 71 76 79 78 70 82 84 76 70 64 67 66 73 69 66 63 65 57 68 66 64 60 52 66 50 63 70 73 74 77 78 79 81
54 55 55 53 68 76 80 87 86 77 42 70 73 86 81 72 75 74 84 76 65 66 67 62 65 65 62 63 68 62 69 65 63 58 57 57 53 59 68 67 71 74 77 79 80
54 55 54 70 70 80 87 85 78 55 42 65 73 70 69 73 73 77 74 78 75 67 68 66 73 70 67 69 69 70 64 62 62 57 46 54 54 56 63 68 73 75 77 77 79
54 53 53 74 73 87 85 76 55 48 70 64 66 71 69 67 70 71 68 65 60 54 55 62 64 70 71 63 67 62 55 45 43 44 44 59 55 59 69 73 76 73 75 77 79
53 52 61 75 83 84 77 63 46 62 64 72 68 68 62 68 68 69 66 62 68 63 56 48 44 60 68 56 55 58 54 44 33 37 44 57 44 60 73 76 76 75 76 77 77
51 73 72 78 83 80 67 52 54 62 68 64 65 60 61 68 67 66 64 63 65 67 53 46 49 65 66 66 61 56 51 59 46 44 42 50 58 66 71 71 72 73 74 73 75
60 71 77 84 82 73 61 52 61 71 69 66 55 61 55 61 60 61 60 64 59 63 68 59 48 62 65 63 62 59 64 47 46 34 34 46 49 53 60 66 70 70 71 73 75
63 69 77 84 79 66 54 60 67 73 70 61 58 56 57 57 59 58 59 62 61 60 62 61 54 53 60 57 54 54 51 54 49 43 33 36 44 58 60 61 62 65 71 72 74
66 63 80 82 63 65 60 68 61 68 70 66 65 61 58 59 57 57 55 57 60 60 52 50 42 43 51 61 63 60 53 54 40 39 47 46 47 62 64 65 62 67 70 74 75
59 68 80 77 56 59 64 66 67 66 65 63 60 63 63 57 50 56 58 63 63 59 51 51 42 37 43 50 55 48 46 48 47 50 40 37 44 67 55 63 63 60 64 74 74
62 59 70 71 71 62 59 58 60 69 66 65 62 63 59 57 60 54 56 58 58 58 57 56 50 44 38 43 40 36 44 48 46 36 40 45 49 58 60 57 58 56 62 71 71
65 61 63 56 60 60 60 59 57 58 66 64 59 60 57 50 53 52 57 59 61 56 56 51 42 48 50 52 51 41 45 48 46 48 41 49 51 57 63 65 67 68 68 66 63
59 57 61 57 62 59 57 58 58 59 59 56 54 58 57 51 53 50 54 54 53 58 52 54 37 45 43 50 51 49 53 53 54 55 54 54 53 67 63 64 64 66 63 60 62
62 63 58 53 58 58 58 58 57 59 60 62 60 57 54 57 60 60 59 58 57 53 51 50 45 41 36 48 49 41 50 52 54 58 58 51 53 56 57 56 58 62 63 61 64
MSLP
1019.34 1018.98 1018.58 1018.15 1017.73 1017.35 1016.98 1016.60 1016.28 1015.96 1015.68 1015.36 1015.03 1014.74 1014.48 1014.15 1013.50 1012.33 1010.90 1008.82 1008.43 1008.80 1008.95 1008.32 1007.19 1006.73 1006.32 1005.75 1005.17 1004.93 1003.99 1002.35 1002.02 1000.92 999.75 998.93 998.52 999.03 1000.00 1000.40 1000.40 1000.51 1000.74 1000.48 1001.03
1019.17 1018.79 1018.41 1018.04 1017.67 1017.28 1016.89 1016.55 1016.18 1015.79 1015.43 1015.14 1014.83 1014.60 1014.39 1014.11 1013.08 1010.65 1008.67 1008.31 1008.42 1008.69 1008.48 1007.49 1006.55 1006.07 1005.64 1005.15 1004.78 1003.84 1002.71 1002.13 1002.02 1000.94 999.92 999.05 998.38 998.29 999.37 1000.17 1000.27 1000.30 1000.85 1000.86 1001.22
1018.91 1018.52 1018.14 1017.82 1017.51 1017.14 1016.74 1016.31 1015.95 1015.54 1015.13 1014.84 1014.61 1014.42 1014.25 1013.98 1011.23 1007.88 1008.27 1008.40 1008.32 1008.63 1008.24 1007.02 1006.03 1005.31 1004.78 1004.31 1003.63 1003.16 1001.74 1001.82 1001.07 1000.64 1000.06 999.14 998.46 998.15 999.26 1000.03 1000.30 1000.40 1000.53 1001.19 1001.59
1018.79 1018.39 1017.94 1017.57 1017.26 1016.92 1016.50 1016.03 1015.66 1015.31 1014.91 1014.59 1014.36 1014.19 1013.91 1013.30 1009.36 1007.56 1008.16 1008.26 1008.52 1008.47 1007.72 1006.32 1005.58 1005.11 1004.28 1003.48 1003.01 1002.22 1001.67 1001.25 1000.88 1000.42 999.84 999.11 998.91 998.16 998.70 1000.87 1000.20 1000.71 1001.17 1001.42 1001.89
1018.64 1018.12 1017.65 1017.30 1016.94 1016.52 1016.14 1015.78 1015.36 1015.01 1014.70 1014.41 1014.21 1014.09 1013.20 1010.88 1007.57 1007.74 1008.03 1008.14 1008.24 1007.95 1006.74 1005.55 1004.89 1004.25 1003.67 1003.06 1002.51 1001.61 1001.15 1000.78 1000.59 1000.31 999.91 999.49 998.85 998.82 998.70 999.39 1000.09 1001.41 1001.34 1001.72 1002.18
1018.48 1017.92 1017.45 1016.97 1016.51 1016.06 1015.71 1015.41 1015.11 1014.74 1014.42 1014.18 1014.09 1014.08 1012.77 1009.14 1006.09 1007.15 1007.22 1007.38 1007.25 1006.47 1005.80 1005.19 1004.54 1003.89 1003.55 1002.78 1002.03 1001.37 1000.84 1000.49 1000.30 1000.00 999.91 999.78 999.57 999.35 999.13 999.81 1000.08 1000.40 1001.03 1001.60 1002.01
1018.16 1017.70 1017.14 1016.61 1016.10 1015.63 1015.22 1014.97 1014.74 1014.48 1014.19 1013.95 1013.91 1013.31 1011.20 1007.84 1005.97 1005.99 1006.54 1006.44 1006.21 1005.81 1005.53 1004.99 1004.72 1004.59 1003.88 1003.23 1002.52 1002.08 1001.46 1000.64 1000.62 1000.62 1000.22 1000.26 999.97 999.33 999.79 1000.14 1000.10 1000.18 1000.38 1000.72 1001.22
1017.87 1017.34 1016.83 1016.26 1015.73 1015.32 1014.86 1014.47 1014.25 1014.04 1013.86 1013.77 1013.77 1012.70 1009.26 1006.04 1005.69 1005.91 1005.84 1005.96 1005.78 1005.75 1005.72 1005.36 1005.34 1005.14 1004.56 1003.75 1002.99 1002.56 1001.99 1001.12 1000.57 1000.36 1000.09 1000.39 999.03 999.53 999.95 999.98 999.77 999.85 999.88 1000.04 1000.64
1017.61 1017.07 1016.51 1015.95 1015.44 1014.95 1014.45 1014.09 1013.61 1013.29 1013.27 1013.57 1013.38 1011.47 1007.29 1006.20 1005.90 1005.55 1005.65 1005.45 1005.22 1005.48 1005.54 1005.60 1005.55 1005.12 1004.49 1003.81 1003.16 1002.31 1001.44 1000.52 999.70 999.33 998.92 999.23 999.16 999.57 999.53 999.44 999.12 998.83 999.45 1000.02 1000.57
1017.39 1016.81 1016.22 1015.60 1015.07 1014.59 1014.22 1013.93 1013.31 1013.14 1013.10 1012.57 1011.08 1009.77 1006.56 1005.03 1005.19 1005.29 1005.34 1005.41 1005.39 1005.31 1005.22 1005.33 1005.21 1004.68 1003.93 1003.29 1002.07 1001.26 1000.41 999.86 999.05 998.30 998.38 998.59 999.05 999.19 999.48 999.17 999.05 999.62 999.96 1000.35 1000.69
1017.23 1016.52 1015.89 1015.28 1014.68 1014.41 1013.89 1012.77 1012.89 1011.92 1010.50 1008.71 1007.41 1006.61 1005.14 1004.84 1004.92 1005.39 1005.34 1005.46 1005.54 1005.32 1004.82 1004.38 1004.31 1003.57 1002.73 1002.22 1001.86 1001.29 1000.41 1000.14 998.95 998.18 998.61 999.09 999.43 999.37 999.24 999.00 998.99 999.55 1000.01 1000.29 1000.53
1017.10 1016.36 1015.59 1014.92 1014.37 1014.22 1014.07 1011.47 1009.58 1009.20 1007.95 1006.42 1005.84 1005.37 1004.95 1004.72 1004.59 1004.93 1005.05 1005.27 1004.99 1004.71 1004.21 1003.97 1003.02 1002.75 1002.30 1001.74 1001.32 1001.45 1001.22 1000.83 1000.03 999.34 999.25 999.26 999.53 999.79 999.65 999.13 998.79 998.66 998.98 999.61 1000.07
1016.84 1016.15 1015.40 1014.65 1014.08 1013.59 1011.50 1009.60 1008.88 1008.28 1007.52 1004.90 1004.44 1004.33 1004.49 1004.86 1004.38 1003.84 1004.49 1004.65 1004.53 1003.96 1003.62 1002.80 1002.39 1001.87 1001.91 1001.74 1001.84 1001.97 1001.83 1001.36 1000.66 1000.13 999.82 999.93 999.92 999.92 999.15 998.70 998.55 998.27 998.51 998.98 999.41
1016.63 1015.87 1015.20 1014.50 1014.03 1010.47 1009.20 1008.90 1008.32 1008.43 1006.96 1003.95 1003.83 1003.46 1003.85 1004.24 1003.92 1003.71 1003.53 1004.18 1004.07 1003.73 1003.34 1002.63 1002.05 1001.80 1001.85 1002.23 1002.35 1001.75 1001.65 1001.39 1001.21 1001.10 1000.65 1000.80 999.31 998.49 997.58 996.72 997.12 997.49 997.91 998.41 998.83
1016.49 1015.73 1015.01 1014.96 1012.98 1009.85 1009.22 1008.67 1008.55 1008.53 1005.92 1003.62 1002.93 1003.19 1003.19 1003.72 1002.92 1003.16 1003.54 1003.74 1003.75 1003.46 1003.23 1002.48 1002.15 1001.86 1001.85 1002.34 1002.13 1001.89 1001.85 1001.92 1002.16 1002.08 1001.96 1001.16 1000.31 998.46 997.69 996.58 996.33 996.93 997.64 998.18 998.72
1016.31 1015.65 1015.03 1012.41 1012.54 1009.84 1008.81 1008.77 1008.62 1007.62 1004.69 1002.59 1002.56 1002.74 1003.05 1002.97 1002.97 1002.79 1003.22 1003.69 1003.78 1003.56 1003.25 1002.74 1002.47 1002.19 1002.13 1002.01 1002.23 1002.29 1002.57 1002.85 1002.82 1002.91 1001.99 1000.95 1000.10 997.91 996.68 995.46 995.21 996.38 997.41 998.47 999.12
1015.92 1015.18 1015.12 1012.66 1010.49 1009.24 1009.29 1008.68 1007.69 1005.64 1003.03 1002.05 1002.13 1002.05 1002.14 1002.07 1001.73 1001.94 1002.15 1002.34 1002.78 1003.05 1002.63 1002.42 1001.92 1001.89 1001.83 1002.11 1002.53 1003.27 1003.55 1003.22 1003.00 1002.40 1000.63 999.85 998.83 996.87 995.70 995.50 994.90 996.20 997.45 998.23 998.92
1015.05 1014.33 1012.57 1011.72 1010.53 1009.66 1009.48 1008.61 1006.69 1004.00 1002.77 1002.43 1002.75 1002.67 1002.36 1002.00 1001.41 1001.29 1001.37 1001.56 1001.68 1002.29 1002.61 1003.11 1002.76 1002.14 1001.08 1003.16 1003.01 1002.84 1003.81 1004.14 1003.56 1002.86 1001.32 999.98 998.80 996.27 995.56 995.42 996.21 996.97 997.69 998.51 998.98
1014.22 1011.73 1011.26 1010.21 1009.88 1009.90 1009.34 1007.58 1005.39 1003.91 1003.71 1003.65 1003.73 1002.98 1002.04 1001.29 1001.21 1001.46 1001.55 1001.72 1002.07 1002.18 1002.11 1003.20 1002.78 1002.18 1002.52 1002.60 1003.56 1003.24 1003.08 1003.90 1004.38 1004.82 1003.18 1000.82 999.31 997.38 997.00 996.62 996.92 997.51 998.05 998.65 999.08
1014.64 1011.36 1009.16 1008.79 1009.48 1009.78 1008.97 1006.95 1005.30 1004.07 1004.05 1004.42 1004.34 1003.89 1003.16 1002.51 1002.18 1001.82 1002.00 1002.78 1003.10 1003.75 1003.04 1002.98 1002.61 1002.54 1002.19 1003.00 1003.40 1003.06 1003.41 1003.87 1005.11 1004.74 1003.14 1001.06 999.72 998.12 997.15 996.40 997.14 998.01 998.25 998.83 999.09
1013.98 1010.27 1009.11 1009.03 1009.38 1009.12 1007.84 1005.89 1004.57 1004.32 1004.86 1005.31 1004.95 1004.80 1004.61 1004.13 1003.76 1003.27 1002.96 1003.47 1004.47 1004.86 1004.70 1004.14 1004.05 1003.56 1003.08 1002.63 1002.62 1003.23 1003.58 1003.82 1005.35 1005.49 1004.65 1002.51 1000.67 999.95 999.07 998.86 998.96 999.04 998.87 999.16 999.32
1013.17 1009.89 1008.66 1008.82 1008.72 1007.39 1006.49 1005.24 1005.34 1005.04 1005.20 1005.31 1005.25 1005.21 1005.03 1004.68 1004.33 1004.10 1003.93 1004.42 1005.84 1005.90 1006.27 1007.40 1007.42 1005.35 1003.66 1003.08 1002.94 1003.18 1003.37 1004.11 1004.94 1005.07 1004.06 1002.90 1000.43 1000.12 999.77 999.88 1000.19 1000.34 999.76 999.34 999.35
1014.23 1010.04 1008.49 1008.67 1007.90 1007.17 1006.80 1006.09 1005.84 1005.24 1005.30 1005.57 1005.64 1005.71 1005.55 1005.35 1005.15 1004.92 1004.78 1005.31 1005.78 1006.56 1007.17 1007.68 1007.83 1006.66 1005.17 1004.42 1004.28 1004.87 1005.89 1006.05 1005.37 1004.16 1004.09 1003.62 999.65 1000.17 1001.96 1000.79 1000.85 1001.25 1000.35 999.20 998.38
1014.66 1010.60 1008.65 1008.37 1007.90 1007.83 1007.45 1007.14 1006.14 1005.85 1005.69 1006.16 1006.22 1006.29 1005.95 1005.37 1005.14 1005.05 1005.00 1005.34 1006.31 1006.62 1007.29 1007.71 1007.11 1006.80 1006.09 1005.59 1006.91 1007.07 1006.10 1005.56 1005.86 1005.34 1004.03 1002.48 1000.88 1000.17 999.54 1000.16 1000.84 1000.82 1000.19 998.84 998.59
1014.37 1011.59 1011.03 1009.78 1009.02 1008.87 1008.53 1007.82 1006.89 1006.07 1006.09 1006.64 1006.67 1006.31 1006.22 1006.15 1005.97 1005.67 1005.51 1005.34 1005.51 1006.86 1007.49 1008.14 1007.82 1007.25 1006.30 1005.85 1005.71 1006.51 1005.91 1005.22 1004.48 1003.59 1003.32 1001.81 1000.76 999.90 999.26 998.86 998.99 998.97 998.69 999.18 999.53
1015.00 1014.11 1012.71 1011.63 1010.16 1009.22 1008.46 1007.58 1007.02 1006.76 1007.14 1007.17 1007.10 1006.93 1007.06 1006.84 1006.68 1006.41 1006.41 1006.42 1006.21 1006.45 1007.48 1007.89 1008.58 1008.02 1006.95 1006.15 1005.27 1004.40 1003.76 1003.25 1002.66 1001.99 1001.34 1000.96 1000.14 999.11 999.33 999.31 999.15 998.80 999.43 1000.03 1000.16
1016.36 1015.49 1014.40 1012.47 1010.85 1009.37 1008.36 1008.06 1007.97 1008.01 1007.69 1007.41 1007.29 1007.35 1007.35 1007.11 1007.13 1007.24 1007.22 1007.20 1007.22 1007.27 1007.35 1007.71 1008.03 1008.17 1006.99 1006.00 1004.81 1003.80 1002.83 1002.47 1001.89 1000.91 1000.40 1000.11 1000.50 1000.78 1000.18 1000.13 999.77 999.38 999.41 999.39 999.71
Wind_Speed
18 18 18 17 16 15 15 15 15 15 15 15 15 15 16 17 20 18 14 6 2 6 3 12 16 14 16 18 20 21 17 18 26 28 22 20 16 21 19 13 14 5 10 10 9
18 18 18 17 17 17 16 16 15 15 15 15 15 15 15 16 18 20 9 9 8 6 8 12 14 15 14 19 19 20 17 26 25 24 25 28 24 14 19 16 17 16 12 9 12
19 19 17 17 18 18 17 17 16 15 15 15 15 15 15 15 14 7 10 9 8 5 11 17 12 16 18 18 21 22 23 23 25 24 26 28 27 14 11 16 15 19 16 8 14
18 19 19 17 18 19 18 17 16 15 14 14 14 15 15 9 5 10 12 8 6 8 15 14 12 14 16 19 21 25 25 25 23 25 25 25 24 28 12 10 17 18 12 10 6
19 20 19 20 19 18 18 18 17 15 14 13 13 12 10 9 15 13 11 10 9 12 15 12 13 14 16 18 21 24 23 24 25 23 22 24 23 20 18 17 8 17 13 12 11
19 19 20 20 19 18 17 17 17 15 14 13 11 9 8 14 9 15 11 11 12 12 13 11 11 10 12 15 17 18 20 22 20 20 20 19 22 20 19 16 19 16 14 15 14
19 20 20 19 19 18 17 15 17 16 16 13 9 8 11 17 6 14 12 11 12 10 10 9 10 10 11 14 15 16 18 19 15 18 25 16 24 26 20 20 22 22 19 17 13
20 20 20 20 19 18 17 15 16 18 16 13 8 8 9 7 10 9 11 11 10 8 11 12 7 13 16 16 18 11 15 17 20 22 22 17 24 21 20 21 24 24 19 15 14
22 19 21 20 18 17 16 16 18 15 10 9 8 10 13 4 9 11 12 12 12 9 8 8 8 14 14 15 14 14 16 21 23 23 22 26 25 21 19 19 19 13 16 10 13
22 19 20 19 18 16 16 16 11 1 7 10 12 9 9 11 11 14 11 9 6 10 11 11 10 13 14 14 14 17 22 20 19 22 8 11 17 18 16 18 7 10 11 13 10
23 21 19 18 17 13 13 6 7 8 14 15 8 13 8 2 4 5 9 9 12 12 13 14 13 14 18 19 20 21 21 18 19 14 16 15 14 16 16 17 15 15 14 13 12
24 22 20 18 16 11 7 8 9 8 12 18 18 12 13 7 8 11 15 12 14 14 16 15 16 16 16 20 14 14 14 19 21 17 15 12 16 17 19 20 19 15 14 14 13
23 22 20 17 16 7 11 7 8 10 9 16 9 11 11 12 13 12 14 13 16 16 15 17 15 9 8 11 12 13 16 18 19 17 14 9 17 20 26 25 22 19 15 14 13
24 23 19 20 5 9 5 8 10 7 7 11 8 7 9 9 15 14 11 15 15 19 18 15 18 16 8 15 14 17 16 17 15 16 12 13 17 17 15 13 24 21 21 18 15
25 24 21 9 12 9 9 9 9 5 6 10 10 8 7 11 5 11 9 10 16 18 17 16 15 14 13 16 17 16 12 15 11 14 15 20 14 16 20 20 15 13 8 6 5
25 23 22 7 8 14 9 9 6 7 6 6 5 6 10 14 15 7 11 12 13 17 18 20 21 18 20 11 17 13 12 14 16 13 17 21 19 17 17 17 15 17 12 7 8
27 24 13 10 10 12 10 8 7 8 5 0 1 5 10 13 16 18 18 18 15 16 16 20 21 19 20 21 17 14 17 12 15 15 17 22 22 16 14 5 11 17 13 9 6
31 24 9 9 12 9 8 9 10 13 11 13 7 12 15 17 16 17 18 18 16 16 15 13 18 23 6 11 21 15 15 11 12 15 17 14 10 11 8 13 10 8 5 2 4
32 4 6 11 9 4 8 9 13 11 12 11 15 17 16 17 16 17 15 17 15 20 12 10 12 15 7 10 18 20 16 16 10 14 17 16 17 22 11 7 10 10 9 4 5
10 9 10 10 3 5 8 15 21 17 6 11 14 13 16 18 21 19 10 10 8 18 16 14 17 15 18 3 17 17 15 9 3 14 17 15 19 13 11 18 12 9 6 8 7
5 6 6 2 3 7 9 15 16 15 12 7 14 18 18 19 17 19 21 15 18 13 22 14 13 16 13 17 14 11 15 13 11 7 2 9 8 8 5 12 7 9 3 3 5
7 8 7 3 8 8 12 10 6 15 8 14 14 16 17 16 17 20 21 6 4 9 8 7 4 15 15 20 23 20 13 16 7 14 14 16 16 13 2 4 12 11 9 9 10
8 11 6 2 6 10 16 16 18 14 11 9 14 17 17 17 17 18 17 14 10 12 2 4 5 9 10 11 7 10 12 16 17 13 17 14 17 9 16 14 10 14 18 16 12
7 7 3 6 8 8 13 16 14 14 10 9 10 15 15 15 13 15 17 2 6 11 3 5 10 14 14 16 6 7 18 18 9 6 13 18 24 20 16 9 15 15 22 18 22
6 7 5 8 12 17 13 15 17 12 9 10 14 15 16 15 15 17 16 17 6 7 3 4 9 18 18 19 19 15 18 18 18 16 19 18 23 20 19 18 18 12 11 11 14
6 7 9 14 13 14 11 15 13 11 14 16 14 13 13 13 13 16 16 13 14 3 8 7 5 12 18 19 20 22 22 20 23 27 26 23 30 20 16 16 18 15 14 15 11
8 10 8 9 15 13 10 11 13 15 11 10 11 13 14 13 12 13 13 13 12 12 12 12 9 9 13 16 17 14 18 18 20 19 20 22 16 18 18 15 15 17 15 8 17
Wind_Direction
338 335 331 329 328 326 324 324 321 318 316 312 310 308 311 312 305 269 257 264 124 117 314 267 266 240 244 248 243 238 245 247 250 256 258 253 231 183 189 214 255 262 245 300 76
334 333 331 328 329 325 323 320 318 316 313 311 308 308 311 316 296 275 245 121 128 148 233 233 238 232 237 233 235 234 237 242 251 260 263 267 270 241 173 195 221 240 259 294 281
331 330 330 328 326 322 318 315 313 311 311 309 307 308 312 310 286 213 143 143 122 195 249 277 274 267 234 234 233 231 242 246 245 249 264 272 273 250 216 215 225 227 217 261 334
329 327 326 324 324 320 314 310 307 305 304 304 306 310 310 284 313 124 156 137 166 246 260 253 238 242 249 243 241 245 241 246 255 266 269 264 266 270 226 255 236 223 268 274 293
332 329 326 323 320 316 311 306 302 300 296 296 300 315 305 236 253 136 151 157 206 225 248 256 249 248 247 242 249 248 247 253 246 257 266 273 280 284 272 216 220 220 223 269 283
327 325 322 318 315 312 308 303 297 292 288 283 289 304 250 263 112 146 187 177 235 224 253 240 262 296 306 290 268 263 252 251 265 264 271 271 278 271 263 279 270 268 212 217 247
328 327 322 317 314 310 306 301 295 289 280 272 271 266 265 251 315 158 207 211 232 258 280 258 302 301 275 264 268 273 281 278 251 270 255 240 258 251 263 265 264 257 244 245 249
331 327 322 319 315 311 307 301 299 291 273 257 242 251 262 256 237 230 212 230 246 255 261 298 287 274 277 283 284 262 263 260 254 242 245 238 252 250 248 248 251 254 253 240 248
332 329 325 322 318 311 306 302 296 292 253 223 229 222 257 137 220 231 235 227 223 224 240 261 271 267 257 247 254 245 253 249 249 244 239 216 240 248 255 265 263 248 234 240 248
333 330 326 322 317 311 306 294 314 184 213 205 263 248 253 247 182 215 219 247 248 253 233 234 245 248 236 251 243 245 232 236 251 267 199 225 249 252 262 275 227 257 257 251 235
335 333 327 321 315 317 313 214 208 199 221 257 308 242 296 348 100 212 225 210 247 247 253 244 236 239 245 232 241 258 283 291 289 237 190 216 249 267 269 261 218 218 229 235 230
335 333 329 322 315 316 282 260 24 309 296 263 235 261 275 303 235 222 225 222 223 244 241 240 243 247 264 265 275 294 292 276 281 290 294 270 259 265 270 268 270 251 218 227 230
333 332 330 326 321 271 231 359 308 307 277 283 214 236 227 222 241 225 202 231 253 248 245 267 269 301 293 280 277 262 263 271 275 275 282 275 278 269 259 251 249 254 247 241 231
334 333 331 326 292 274 254 347 315 8 275 190 202 216 195 195 232 247 233 221 245 252 265 268 261 265 220 261 262 258 250 256 269 264 270 272 274 264 262 267 218 232 229 230 228
332 331 327 319 313 297 353 316 345 258 278 164 130 102 204 209 99 194 230 247 250 270 277 263 278 261 235 257 258 255 277 291 287 281 271 259 259 263 260 261 210 193 207 210 213
328 327 330 257 223 266 335 327 269 238 256 166 169 219 217 218 245 240 188 213 266 276 273 270 278 274 272 262 257 299 291 284 271 260 256 254 254 261 260 275 224 165 157 176 205
324 316 309 301 286 337 328 276 251 255 170 115 320 279 240 267 247 221 235 224 226 250 250 258 251 259 260 247 250 260 290 257 246 231 247 243 240 244 244 3 188 140 164 173 187
319 309 239 239 277 314 297 259 256 269 334 6 341 293 276 282 271 263 260 259 257 249 270 308 298 290 215 313 292 241 233 269 287 295 302 309 297 230 320 174 146 94 81 234 204
315 211 236 227 242 287 276 248 252 310 342 344 321 285 279 287 258 263 264 287 291 260 262 220 257 287 288 286 211 248 238 243 277 278 274 274 257 279 261 141 150 177 186 175 235
316 290 244 138 167 268 259 265 289 292 359 315 301 304 303 316 323 315 283 248 259 270 301 289 289 278 301 112 294 242 262 241 266 264 266 270 276 283 344 198 170 207 167 192 180
268 262 95 286 181 250 254 270 308 360 354 316 308 308 309 307 306 300 302 348 19 331 335 304 292 271 270 266 243 251 254 232 203 213 287 291 282 7 351 65 44 0 241 226 248
300 288 129 215 270 240 251 326 329 301 301 303 285 282 284 294 303 304 309 328 336 283 309 9 9 295 291 307 303 261 286 242 234 255 240 261 261 180 291 315 164 239 307 243 227
296 290 149 237 298 332 327 325 324 303 324 311 312 309 318 309 303 293 312 22 18 294 65 165 224 298 291 332 335 360 333 318 348 254 230 255 266 249 130 257 4 330 309 280 239
281 315 356 303 288 287 325 314 315 325 302 308 305 302 288 281 301 301 301 174 195 239 61 293 282 269 274 291 143 290 297 305 291 261 259 249 261 268 283 212 289 290 266 283 331
261 326 9 299 322 315 306 298 297 301 339 331 308 298 318 315 307 308 320 320 280 136 228 17 294 287 288 294 291 204 252 261 267 264 263 268 264 266 276 289 287 286 356 357 328
329 340 340 297 299 300 286 293 294 330 341 314 301 313 322 301 301 308 312 306 304 327 200 202 295 291 290 288 283 271 280 281 262 249 247 236 249 272 345 333 332 332 348 327 281
358 335 303 291 296 305 310 334 312 321 309 301 305 310 306 308 326 308 297 290 290 292 295 302 295 310 285 289 312 287 270 263 279 296 264 271 333 334 331 318 315 320 321 258 282